Reflectivity
-20 -20 -20 -20 -20 -20 -20 -20 -20 -20 -20 -20 -20 -20 -20 -20 -20 -20 -20 -20 -20 -9 12 -20 -20 11 -20 -20 -20 6 -20 -15 -7 -20 -20 -20 -20 -20 -20 -20 -20 -3 -8
-20 -20 -20 -20 -20 -20 -20 -20 -20 -20 -20 -20 -20 -20 -20 -20 -20 -20 -20 -20 -20 -20 -20 -20 -20 -6 -20 -20 -20 -20 -20 -6 -20 15 -14 -20 -19 -20 -15 -9 -20 -11 -8
-20 -20 -20 -20 -20 -20 -20 -20 -20 -20 -20 -20 -20 -20 -20 -20 -20 -20 -20 -20 -20 -20 -20 -20 -20 15 -20 -20 -15 -20 13 6 24 -20 -20 -10 -13 -19 -2 -3 0 3 30
-20 -16 -16 -20 -20 -20 -20 -20 -20 -20 -20 -20 -20 -20 -20 -20 -20 -20 -20 -20 -20 -20 -20 -20 -20 -20 -20 21 4 -16 1 16 11 -17 -20 6 -12 27 2 -15 5 21 23
-20 -20 -20 -20 -20 -20 -2 -20 -20 -20 -20 -20 -20 -20 -20 -20 -20 -20 -20 -20 -20 -20 -20 -20 -20 -20 -20 -20 -14 -20 -10 -20 -20 -20 -11 -1 9 6 -18 -20 -8 29 10
-20 -20 -20 -20 -20 -20 20 3 -20 -20 -20 -20 -20 -20 -20 -20 -20 -20 -20 -20 -20 -20 -20 -20 -20 -20 -20 -20 -20 -20 -20 -20 -20 -20 -20 -20 -10 -0 26 5 -20 -20 -20
-20 -20 -20 -19 -20 -20 -18 -18 -2 -3 -19 -8 -11 7 19 -5 12 0 -4 -20 -7 -10 -20 -20 -20 -20 -20 -20 -20 -20 -20 -20 -20 -9 -20 -20 -20 -12 -7 13 -20 -20 -15
-7 -18 -2 -17 -20 -8 -20 -20 -20 -7 4 -20 -20 -20 -20 -20 -20 -20 -20 -20 -20 -20 -8 8 -7 -20 -20 -13 -2 -20 -20 -20 -20 -20 -20 -20 -20 -20 1 16 -20 0 -3
23 21 -20 -20 -20 10 -20 -20 -12 -14 -13 -20 -20 -20 -20 -20 -20 -20 -20 -20 -20 -20 -20 -19 3 9 -2 -20 9 -4 -20 -20 -20 -20 -12 -8 0 -20 -20 -6 -9 21 9
-20 -20 -20 -20 -20 -20 -20 -20 15 -20 -20 -20 -20 -20 -20 -20 -20 -20 -20 -20 -20 -20 -20 -20 -20 -20 -20 -2 3 21 9 -16 12 13 -18 -19 2 -13 26 6 18 16 -17
-20 -12 35 -20 -20 -20 -20 -20 -20 -20 -20 -20 -20 -20 -20 -20 -20 -20 -20 -18 -20 -20 -20 -20 -20 -20 -20 -2 10 17 13 19 24 9 -4 -0 2 26 28 28 28 40 39
18 33 40 -12 7 -20 -20 -20 -20 -20 -20 -20 -20 -20 -20 -20 -20 -20 -20 -20 -20 -20 -20 -19 -20 -8 -3 -4 7 -6 5 4 5 -10 -15 -20 2 34 38 35 34 39 35
34 39 34 22 13 -2 -20 -20 -20 -20 -20 -20 -20 -20 -20 -20 -20 -20 -20 -20 -6 2 -20 -11 0 -10 -0 5 -20 -1 10 -2 10 -6 -20 -20 -11 18 32 37 37 31 22
34 27 21 7 4 -20 -20 -20 -20 -20 -20 -20 -20 -20 -20 -20 -20 -20 -20 -20 -3 4 6 -11 -10 5 11 6 -1 -11 -20 5 -11 -16 -20 -20 -16 1 -14 13 29 18 15
27 15 3 -3 -20 -20 -20 -20 -20 -20 -20 -20 -20 -16 -10 -20 -20 -20 -13 -11 -20 -9 -1 -8 -11 1 1 11 -0 -7 8 -7 -10 5 0 -16 -2 -2 11 14 4 13 -1
5 -7 -16 -17 -20 -20 -20 -20 -11 -20 -20 -20 5 -0 -20 -20 -20 -20 9 -1 -20 -20 -11 -16 -4 3 9 12 2 11 18 10 -18 -1 7 4 -5 10 17 11 -1 14 17
-20 -20 -20 -20 -20 -20 -20 -20 -20 -20 -20 -20 -20 -20 -20 -20 -20 -20 -20 -20 -20 6 -20 -4 3 4 17 -1 5 6 -20 -20 -13 -5 9 13 -17 -3 16 10 -4 -3 -0
-20 -20 -20 -20 -20 -20 -20 -20 -20 -20 -20 -20 -20 -20 -20 -20 -20 -20 -19 -15 -18 -20 -20 -3 4 17 18 20 25 20 8 -7 -5 -8 6 18 11 12 10 -6 -1 1 1
-20 -20 -20 -20 -20 -20 -20 -20 -20 -20 -20 -20 -20 -20 -20 -20 -20 -20 -20 -20 -16 2 5 -20 -7 1 15 23 22 26 25 16 21 13 8 0 -8 -12 -4 -0 10 19 12
-20 -20 -20 -20 -20 -20 -20 -20 -20 -20 -20 -20 -20 -20 -20 -20 -20 -20 -20 -20 -20 -3 -5 3 1 10 24 24 8 28 25 9 15 9 -18 -20 -12 -10 3 4 -0 -3 -20
-20 -20 -20 -20 -20 -20 -20 -20 -20 -20 -20 -20 -20 -20 -20 -20 -20 -20 -20 -20 -20 -20 -20 -20 2 -20 -20 -5 -3 -11 -17 13 23 -19 -20 -15 1 -20 -20 -20 -12 -10 -19
-20 -20 -20 -20 -20 -20 -20 -20 -20 -20 -20 -20 -20 -20 -20 -20 -20 -20 -20 -20 -20 -20 -20 -20 -20 -20 -20 -20 -20 -20 -20 -20 -20 -19 -4 -9 -9 -17 -20 -20 -20 -20 -12
-20 -20 -20 -20 -20 -20 -20 -20 -20 -20 -20 -20 -20 -20 -20 -20 -20 -20 -20 -20 -20 -20 -20 -20 -20 -20 -20 -20 -20 -20 -20 -20 -20 -20 -17 -18 -20 -20 -20 -20 -20 -20 -20
-20 -20 -20 -20 -20 -20 -20 -20 -20 -20 -16 -20 -20 -20 -20 -20 -20 -20 -20 -20 -20 -20 -20 -20 -20 -20 -20 -20 -20 -20 -20 -20 -20 -20 -20 -20 -20 -20 -20 -20 -20 -20 -20
-20 -20 -20 -20 -20 -20 -20 -20 -20 -20 -20 -20 -20 -20 -20 -20 -20 -20 -20 -20 -20 -20 -20 -20 -20 -20 -20 -20 -20 -20 -18 -20 -20 -20 -20 -20 -20 -20 -20 -20 -20 -20 -20
-16 -7 -20 -20 -20 -2 -20 -20 -20 -20 -20 -20 -20 -20 -20 -20 -20 -20 -20 -20 -20 -20 -20 -20 -20 -20 -20 -20 -20 -20 -20 -20 -20 -20 -20 -20 -20 -20 -20 -20 -20 -20 -20
Wind_Speed
17 16 15 14 15 14 13 13 12 11 10 9 9 8 9 9 9 9 10 9 10 10 10 11 11 10 8 7 6 6 6 6 8 7 4 3 4 5 3 2 5 5 5
15 15 15 13 13 14 14 13 12 11 11 10 10 10 10 10 9 10 10 10 10 10 11 10 12 8 10 9 7 9 7 7 6 11 7 7 5 2 3 4 4 4 6
15 15 15 15 14 13 13 12 11 11 12 12 11 11 10 11 11 11 10 10 11 12 11 11 12 12 11 10 9 9 7 6 6 7 8 7 3 3 3 3 4 4 4
17 14 12 15 13 10 9 10 11 11 13 13 13 13 12 11 9 8 9 10 11 11 12 11 12 13 12 11 10 10 8 7 7 7 9 7 6 4 4 3 3 1 5
17 15 14 11 11 11 10 10 11 12 12 12 10 10 10 9 8 10 10 11 11 11 11 12 13 14 13 13 9 9 10 9 8 9 8 8 8 4 6 4 4 5 3
15 15 10 10 12 11 7 10 8 11 10 8 8 8 8 7 6 6 10 10 12 13 13 14 13 13 14 16 16 16 13 11 12 10 10 11 12 9 7 5 6 4 4
13 13 13 13 13 11 10 8 8 8 5 4 3 3 5 4 11 10 10 9 12 14 15 13 13 12 13 15 15 17 17 16 17 12 13 13 12 11 9 9 10 8 6
11 11 13 13 10 8 9 9 7 4 4 3 2 3 4 2 8 8 11 10 11 13 13 16 17 16 16 15 15 15 14 14 15 14 17 15 14 10 11 11 12 8 4
14 14 13 13 13 10 9 7 6 4 5 4 4 5 5 4 3 6 9 9 11 14 14 15 15 14 15 13 17 17 16 14 11 14 12 4 6 6 8 6 6 8 3
8 10 11 11 11 9 9 7 5 7 6 4 3 3 3 7 5 7 9 7 10 10 13 15 17 19 14 12 14 15 14 12 12 9 6 5 4 4 9 9 8 8 5
10 6 6 14 11 10 10 7 6 6 5 3 3 5 6 7 9 7 9 9 9 10 11 11 12 11 14 16 16 13 14 11 9 7 4 4 4 4 2 2 2 7 6
12 7 5 11 8 8 10 8 7 4 5 6 8 7 6 8 7 10 14 15 17 11 12 11 12 11 9 9 11 16 11 6 4 5 5 6 6 4 2 5 6 6 6
13 8 6 7 8 7 8 8 5 5 6 7 7 7 8 9 9 13 14 17 20 13 10 14 16 12 12 12 12 13 10 7 6 7 7 4 4 6 11 11 9 12 12
14 9 7 9 9 7 6 4 5 5 6 6 6 8 9 10 11 10 9 10 14 11 11 11 12 14 13 11 6 5 6 7 7 7 7 7 7 7 7 5 9 8 9
14 11 10 8 9 8 6 6 6 5 4 5 6 6 9 9 10 14 12 10 9 7 6 5 6 6 6 6 6 5 7 8 9 8 9 8 7 7 7 6 6 6 9
14 12 10 9 9 8 8 7 2 1 6 7 8 5 7 6 15 16 15 15 15 3 2 3 2 4 4 4 5 5 8 10 9 10 9 9 9 9 9 7 7 8 10
14 14 10 10 9 9 8 7 7 5 7 4 5 7 8 8 14 15 15 14 15 10 7 7 6 6 5 5 5 8 8 7 11 10 10 10 9 9 10 8 7 8 6
12 9 9 9 9 8 8 6 5 6 6 6 7 8 10 11 11 14 14 11 11 11 9 9 8 7 7 7 7 9 9 9 9 10 11 10 9 9 8 7 5 4 6
12 10 9 8 8 8 7 6 5 5 5 5 5 6 8 8 8 11 11 10 10 10 9 9 9 9 9 9 9 9 9 9 9 10 10 9 8 7 6 5 4 6 10
11 10 8 8 8 8 7 6 5 4 3 4 4 6 6 6 9 10 11 12 12 10 10 9 9 8 8 7 8 9 9 9 9 9 10 8 6 7 8 7 8 9 7
10 10 8 8 7 7 6 5 5 4 3 2 2 4 5 5 5 7 8 8 9 9 10 10 9 10 8 7 7 9 9 8 9 11 10 10 9 8 8 7 7 5 6
10 10 9 8 7 7 6 5 4 4 3 3 2 3 1 3 3 4 5 5 6 6 6 7 7 7 7 8 8 9 9 9 8 8 7 6 6 6 7 7 7 7 8
8 11 9 8 7 7 7 5 5 4 4 4 3 3 3 1 1 0 1 2 2 3 4 3 3 4 4 3 3 4 5 5 5 5 6 6 6 6 7 7 8 8 9
8 9 9 8 7 6 6 6 6 5 4 5 4 3 2 3 3 3 3 3 2 2 1 0 0 1 3 3 3 4 4 4 5 6 8 6 6 5 6 7 8 9 8
9 8 8 8 8 8 6 7 6 6 7 6 5 4 5 5 5 5 5 5 4 4 4 3 3 4 4 4 5 6 6 3 5 2 6 6 7 8 7 7 8 8 9
10 11 9 7 8 8 7 7 8 8 7 6 6 6 7 7 7 6 6 6 6 6 6 5 5 5 6 5 5 4 4 1 3 5 4 6 7 7 7 8 12 9 10
Wind_Direction
201 203 206 203 207 215 221 223 220 225 223 229 228 225 228 227 224 225 237 253 248 253 258 245 241 235 246 243 233 243 236 233 251 259 269 280 252 240 186 173 158 136 131
196 200 208 207 208 215 222 222 222 223 225 227 226 224 230 236 240 240 245 254 244 248 253 255 248 249 241 241 244 242 237 227 246 267 274 273 268 243 190 184 164 140 158
189 196 202 207 204 216 224 227 227 230 230 226 227 229 228 232 235 241 249 255 254 252 254 252 249 248 245 249 240 248 241 233 230 255 270 267 266 178 150 111 130 141 127
191 203 199 204 206 206 228 231 229 230 236 232 230 234 237 236 229 242 251 255 259 258 256 252 251 248 245 249 243 244 249 248 246 244 261 258 240 179 177 154 157 156 148
194 200 201 192 192 189 207 224 232 231 237 236 238 239 242 240 242 252 251 250 250 257 257 256 248 246 244 240 241 244 233 244 247 249 255 249 243 193 207 158 167 159 156
191 204 184 183 199 219 189 219 221 233 236 234 232 238 242 258 302 257 259 265 265 261 261 257 255 250 242 238 231 236 239 234 240 239 247 244 251 235 212 172 144 158 183
188 182 174 175 200 208 209 202 204 200 198 206 223 267 278 304 37 14 344 290 272 259 256 257 255 254 242 252 235 233 237 231 235 246 246 245 245 233 220 184 183 189 192
176 184 171 169 161 165 162 164 148 138 110 93 67 8 324 323 39 333 312 279 263 262 262 259 253 257 254 252 250 248 237 232 226 232 240 249 247 239 217 210 207 186 105
161 180 161 159 148 163 141 117 101 125 93 61 35 0 342 336 50 323 312 292 275 271 265 261 260 253 247 226 246 252 251 243 205 214 246 348 349 221 214 196 172 166 150
152 155 138 138 132 130 110 105 120 89 77 58 10 344 336 339 356 302 312 313 297 285 279 268 253 255 258 223 229 235 244 242 236 229 227 221 226 232 235 203 182 193 145
52 29 116 113 116 108 103 100 89 88 90 69 21 11 357 337 323 321 290 307 289 287 278 275 269 248 237 227 222 244 244 259 241 230 202 136 97 78 73 40 147 175 168
85 53 6 79 96 104 103 91 78 91 69 42 21 4 355 343 342 319 300 283 287 274 266 264 262 266 282 248 234 234 234 207 182 167 138 145 139 99 64 41 80 66 44
101 108 221 115 108 115 116 106 117 87 58 43 25 352 342 338 329 319 303 303 295 280 262 255 261 250 239 261 247 234 193 196 169 159 156 155 144 127 133 123 91 90 74
127 162 173 151 126 113 107 122 90 74 61 41 16 355 342 337 334 330 321 312 304 289 270 258 247 244 247 260 253 207 180 167 159 145 121 111 115 126 113 109 115 104 96
143 157 157 136 134 134 113 93 95 79 48 50 14 345 345 336 336 320 308 312 306 273 278 275 246 218 215 220 215 181 139 125 118 122 123 124 122 110 96 106 105 99 104
149 157 157 149 150 136 122 125 262 258 207 232 258 269 345 313 328 330 323 324 330 292 198 278 244 211 182 159 124 117 118 118 125 125 121 121 116 115 119 108 104 111 121
156 154 157 154 145 138 139 139 127 166 227 257 7 8 0 313 351 346 349 339 14 17 43 33 34 43 54 91 110 110 108 116 118 117 117 118 117 116 124 122 124 132 128
154 143 156 149 151 144 139 126 108 93 72 55 47 17 11 344 4 1 2 12 31 33 40 40 39 42 58 70 75 94 101 104 109 111 113 115 121 129 131 133 132 127 123
155 163 163 157 153 137 136 136 124 105 83 61 43 46 22 346 20 23 14 38 39 37 42 46 51 54 52 69 75 78 91 100 109 113 116 122 129 134 130 134 131 159 158
161 157 165 156 152 154 158 156 141 110 88 69 51 35 10 20 31 39 38 48 46 42 49 55 51 46 57 66 83 101 107 102 109 119 126 131 127 138 142 163 164 161 158
159 162 168 163 168 169 169 158 140 133 135 102 73 68 337 352 34 41 48 50 46 54 59 62 69 82 77 66 80 97 94 98 116 127 136 144 153 157 156 156 162 142 130
162 164 178 179 169 178 182 175 166 170 161 180 160 119 219 273 29 55 59 61 61 58 64 61 72 79 88 100 105 117 121 122 131 138 148 154 168 178 166 150 134 133 139
169 171 181 183 184 174 184 189 192 193 195 197 184 198 212 290 281 236 96 91 70 58 61 60 90 108 119 139 143 152 156 162 169 167 165 176 182 176 167 157 156 158 160
165 190 184 190 191 189 198 192 198 208 213 195 200 208 225 232 232 210 224 197 188 175 177 212 263 133 151 189 183 199 195 180 174 179 188 176 164 163 167 165 167 159 153
173 175 179 190 190 203 198 214 203 206 207 215 213 215 225 229 229 222 216 211 207 213 206 210 215 206 213 219 219 202 104 140 234 155 192 187 182 175 171 166 156 154 154
184 188 190 182 199 209 209 209 210 212 218 221 225 227 227 226 226 225 216 215 215 217 225 218 219 219 207 209 212 110 110 192 201 282 221 197 183 179 171 165 168 163 164